Weather History for SKPE - November, 2012

Change the Weather History Date:

Tuesday, November 13, 2012

  Actual Average Record
Temperature  
Mean Temperature 72 °F -  
Max Temperature 81 °F 80 °F 82 °F (2003)
Min Temperature 64 °F 61 °F 61 °F (2014)
Cooling Degree Days 8    
Growing Degree Days 22 (Base 50)    
Moisture  
Dew Point 64 °F    
Average Humidity 78    
Maximum Humidity 88    
Minimum Humidity 55    
Precipitation  
Precipitation 0.51 in 0.30 in - ()
Sea Level Pressure  
Sea Level Pressure 30.06 in    
Wind  
Wind Speed 5 mph ()    
Max Wind Speed 9 mph    
Max Gust Speed -    
Visibility 6.4 miles    
Events Rain , Thunderstorm    
Averages and records for this station are not official NWS values.
T = Trace of Precipitation, MM = Missing Value Source: Averaged Metar Reports

Daily Weather History Graph

Daily Weather History Graph

Search for Another Location

Airport or City:

Trip Planner

Search our weather history database for the weather conditions in past years. The results will help you decide how hot, cold, wet, or windy it might be!

Date:

Astronomy

Nov. 13, 2012 Rise Set
Actual Time 5:50 AM COT 5:44 PM COT
Civil Twilight 5:28 AM COT 6:06 PM COT
Nautical Twilight 5:02 AM COT 6:31 PM COT
Astronomical Twilight 4:37 AM COT 6:56 PM COT
Moon 5:24 AM COT (11/13) 5:40 PM COT (11/13)
Length of Visible Light 12h 38m
Length of Day
11h 54m
Waning Crescent, 0% of the Moon is Illuminated
Nov 13
Waning Crescent
Nov 13
New
Nov 20
First Quarter
Nov 28
Full
Dec 6
Last Quarter

Hourly Weather History & Observations

Time (COT) Temp. Dew Point Humidity Pressure Visibility Wind Dir Wind Speed Gust Speed Precip Events Conditions
5:00 AM 64.4 °F 60.8 °F 88% 30.07 in 5.0 mi East 8.1 mph - N/A   Scattered Clouds
6:00 AM 64.4 °F 60.8 °F 88% 30.08 in 6.2 mi East 9.2 mph - N/A   Partly Cloudy
7:00 AM 65 °F 61 °F 81%  in 7 mi East 4.5 mph - -   Haze
7:00 AM 66.2 °F 60.8 °F 83% 30.11 in 6.2 mi East 6.9 mph - N/A   Scattered Clouds
8:00 AM 69.8 °F 64.4 °F 83% 30.14 in 6.2 mi SE 3.5 mph - N/A   Scattered Clouds
9:00 AM 73.4 °F 64.4 °F 73% 30.13 in 6.2 mi Variable 2.3 mph - N/A   Partly Cloudy
10:00 AM 73 °F 65 °F 69%  in 9 mi WNW 4.5 mph - -   Haze
10:00 AM 73.4 °F 64.4 °F 73% 30.14 in 6.2 mi SW 5.8 mph - N/A   Scattered Clouds
11:00 AM 75.2 °F 64.4 °F 69% 30.12 in 6.2 mi NNW 5.8 mph - N/A   Scattered Clouds
12:00 PM 77.0 °F 64.4 °F 65% 30.09 in 6.2 mi SSW 3.5 mph - N/A   Partly Cloudy
1:00 PM 79 °F 66 °F 55%  in 9 mi West 6.7 mph - -   Haze
1:00 PM 78.8 °F 66.2 °F 65% 30.04 in 6.2 mi WSW 4.6 mph - N/A   Partly Cloudy
2:00 PM 78.8 °F 66.2 °F 65% 30.00 in 6.2 mi Variable 2.3 mph - N/A Thunderstorm Thunderstorm
3:00 PM 71.6 °F 66.2 °F 83% 29.97 in 5.0 mi East 9.2 mph - N/A Rain , Thunderstorm Light Thunderstorms and Rain
4:00 PM 74 °F 64 °F 65%  in 6 mi ESE 4.5 mph - - Thunderstorm Light Thunderstorm
4:00 PM 73.4 °F 66.2 °F 78% 29.97 in 6.2 mi ESE 6.9 mph - N/A   Scattered Clouds
5:00 PM 73.4 °F 64.4 °F 73% 30.00 in 6.2 mi ESE 6.9 mph - N/A   Scattered Clouds
6:00 PM 71.6 °F 64.4 °F 78% 30.02 in 6.2 mi SSW 4.6 mph - N/A   Scattered Clouds
7:00 PM 70 °F 65 °F 81%  in 6 mi SSE 6.7 mph - - Rain Light Rain
7:00 PM 69.8 °F 66.2 °F 88% 30.04 in 6.2 mi SSE 5.8 mph - N/A Rain Light Rain
8:00 PM 68.0 °F 64.4 °F 88% 30.06 in 6.2 mi East 6.9 mph - N/A   Light Drizzle
9:00 PM 68.0 °F 64.4 °F 88% 30.06 in 6.2 mi ESE 6.9 mph - N/A   Scattered Clouds
10:00 PM 68 °F 64 °F 83%  in 7 mi East 4.5 mph - -   Haze
10:00 PM 68.0 °F 64.4 °F 88% 30.10 in 6.2 mi East 4.6 mph - N/A   Scattered Clouds
11:00 PM 68.0 °F 64.4 °F 88% 30.09 in 6.2 mi Variable 2.3 mph - N/A   Scattered Clouds